Location: Gleizolles
(44.4833°N, 6.7667°E)
Time: 23:45:12
(UTC+00:00)

Vanguard 2 Rocket - Pass Details

Date: 21 June 2024
Orbit: 555 x 3302 km, 32.9° (Epoch: 24 July)

Event Time Altitude Azimuth Distance (km) Brightness Sun altitude
Rises 08:14:09 0° 277° (W) 6,805 10.9 44.3°
Reaches altitude 10° 08:20:15 10° 266° (W) 5,380 10.5 45.3°
Maximum altitude 08:30:55 24° 221° (SW) 3,388 9.9 47.2°
Drops below altitude 10° 08:38:19 10° 171° (S) 3,601 10.3 48.5°
Sets 08:41:28 0° 157° (SSE) 4,207 10.7 49.0°
